DMSP 5D-2 F13 DEB, 40582

Orbit data source: Space-Track

DMSP 5D-2 F13 DEB, 40582 is space debris in SSO originally from a launch on Fri, 24 Mar 1995 UTC launched from the Air Force Western Test Range (AFWTR). Debris objects in space refer to the collection of defunct objects orbiting the Earth. Examples of debris include non-operational satellites, rocket bodies, and fragments generated from explosions, collisions, or faulty payload assembly.

Loading next visibility...
Identifier
40582, 1995-015ER
Orbit
SSO
Country
Flag of USUS
Related business
Manufacturer
Unknown
Mission
Spacecraft
Bus & Motor
Unknown
Mass
Unknown
Launch date (UTC)
1995-03-24 (31 years ago)
Launch vehicle
Unknown
Launch site
Air Force Western Test Range (AFWTR)
Object type
Payload
Rocket body
Debris
Shape & HBR
Unknown shape, 0.1 m
Radar Cross Section
Small (<0.1 m²)

Expand to show TLE details & history
Last TLE update: 12 hours ago

TLE from 12 hours ago
0 DMSP 5D-2 F13 DEB
1 40582U 95015ER  25340.95145601  .00015831  00000-0  64218-2 0  9995
2 40582  98.7187 243.5260 0079082 324.0100  35.5769 14.26017845547031
Epoch: 2025-12-06T22:50Z
TLE epoch observation values (Epoch: 2025-12-06T22:50:05.799Z)
Latitude
-0.00005°
Longitude
-174.96998°
Altitude
761.937 km
Speed
7.497 km/s
True Right ascension
16h 14m 06s
True Declination
0° 00' 00"
Sunlit
Object was in daylight at epoch
Visualization orbit readout
Latitude
Unknown
Longitude
Unknown
Altitude
Unknown
Speed
Unknown
Apparent Right ascension
Unknown
Apparent Declination
Unknown
Sunlit
N/A
Visualization observer readout
Local Sidereal Time
09:11:48
Azimuth
Unknown
Elevation
Unknown
Doppler factor
Unknown
Orbital elements
Apogee altitude
859.007 km
Perigee altitude
745.44 km
Semi-major axis
7,180.36 km
Eccentricity
0.00791
Inclination
98.7187°
RAAN
243.526°
Arg. of periapsis
324.01°
True anomaly
36.10839°
Mean anomaly
35.5769°
Eccentric anomaly
35.84222°
Mean motion
3.56717 °/min
Orbital period
100.92 mins
BSTAR
0.0064218

Documentation

Showing up to 5 results
|